959  
ASUS44 KSJT 131610  
RWRSJT  
WEST CENTRAL TEXAS REGIONAL WEATHER ROUNDUP  
NATIONAL WEATHER SERVICE SAN ANGELO TX  
1100 AM CDT SAT APR 13 2024  
 
NOTE: "FAIR" INDICATES FEW OR NO CLOUDS BELOW 12,000 FEET WITH NO  
SIGNIFICANT WEATHER AND/OR S TO VISIBILITY
.  
 
TXZ049-054-064>066-071>073-076>078-098-099-113-114-127-128-139-140-  
154-155-168>170-131700-   
..LOCATIONS ACROSS WEST CENTRAL TEXAS
 
 
 
CITY SKY/WX TMP DP RH WIND PRES REMARKS
 
SAN ANGELO MOSUNNY 77 48 35 S20G32 30.12S TC 25  
ABILENE N/A N/A N/A N/A MISG 30.10S  
DYESS AFB SUNNY 76 43 30 S25G36 30.05S TC 24  
JUNCTION MOSUNNY 81 39 22 S13G31 30.17F TC 27  
SWEETWATER N/A 75 41 29 S26G35 30.13R TC 24  
BROWNWOOD MOSUNNY 72 52 49 S17 30.17S TC 22  
COLEMAN MOSUNNY 74 41 30 S18G29 30.15S TC 24  
SAN SABA MOSUNNY 73 55 52 S12G20 30.19F TC 23  
SONORA SUNNY 73 50 43 S16 30.19S TC 23  
OZONA MOSUNNY 72 45 37 S17G25 30.17S TC 22  
BRADY MOSUNNY 73 46 38 S16G29 30.15S TC 23  

 
 
TXZ001-004-007-008-010-012-014-016-OKZ002-131700-  
TEXAS PANHANDLE/OKLAHOMA PANHANDLE  
 
CITY SKY/WX TMP DP RH WIND PRES REMARKS
 
AMARILLO SUNNY 70 37 29 SW18 30.06S TC 21  
BORGER SUNNY 74 36 25 SW17G24 30.03F TC 23  
CANADIAN SUNNY 71 40 32 SW15 30.02F TC 22  
DALHART SUNNY 70 31 23 W13 30.05S TC 21  
DUMAS SUNNY 70 29 21 SW18 30.03F TC 21  
GUYMON NOT AVBL  
HEREFORD SUNNY 68 38 33 SW14 30.09S TC 20  
PAMPA SUNNY 73 43 34 SW26 30.03F TC 23  
PERRYTON N/A 39 10 30 SW17 29.99S WCI 30 TC 4  

 
 
TXZ035-026-045-048-131700-  
SOUTHERN PANHANDLE/SOUTH PLAINS/ROLLING PLAINS  
 
CITY SKY/WX TMP DP RH WIND PRES REMARKS
 
LUBBOCK SUNNY 71 40 32 SW16 30.10F TC 22  
SNYDER SUNNY 72 36 27 S17G25 30.10F TC 22  
CHILDRESS SUNNY 70 48 45 S10 30.06S TC 21  
SEMINOLE SUNNY 74 36 24 SW10 30.16S TC 24  

 
 
TXZ060>062-131700-  
PERMIAN BASIN  
 
CITY SKY/WX TMP DP RH WIND PRES REMARKS
 
MIDLAND SUNNY 74 35 24 S17 30.11R TC 23  
ODESSA SUNNY 74 34 23 SW16 30.13R TC 23  
WINK SUNNY 75 34 22 S9 30.10R TC 24  

 
 
TXZ075-082-271-274-277-419-131700-  
FAR WEST/SOUTHWEST MOUNTAINS/TRANS PECOS  
 
CITY SKY/WX TMP DP RH WIND PRES REMARKS
 
ALPINE MOSUNNY 75 33 21 CALM 30.25F TC 24  
DRYDEN N/A 72 43 35 SE10 30.15S TC 22  
EL PASO MOSUNNY 74 26 16 S5 30.16R TC 23  
FORT STOCKTON NOT AVBL  
GUADALUPE PASS NOT AVBL  
MARFA PTSUNNY 70 33 25 CALM 30.25S TC 21  
PECOS N/A 74 32 21 CALM 30.11S TC 23  

 
 
TXZ118-119-131700-  
DALLAS/FORT WORTH METROPLEX  
 
CITY SKY/WX TMP DP RH WIND PRES REMARKS
 
DFW AIRPORT MOSUNNY 73 57 57 S15 30.18S TC 23  
FTW MEACHAM SUNNY 69 57 65 S15G25 30.18R TC 21  
DAL-EXECUTIVE SUNNY 71 59 65 S14G20 30.19F TC 22  
GRAND PRAIRIE SUNNY 70 57 64 S13G21 30.21F TC 21  
ADDISON SUNNY 72 55 56 S13 30.20F TC 22  
MESQUITE SUNNY 72 61 68 S14 30.22F TC 22  
LANCASTER SUNNY 70 61 73 S12 30.22F TC 21  

 
 
TXZ092-093-103-131-134-131700-  
NORTH CENTRAL TEXAS  
 
CITY SKY/WX TMP DP RH WIND PRES REMARKS
 
SHRMAN/DENISON SUNNY 73 55 53 S20G25 30.20S TC 23  
GAINESVILLE SUNNY 70 55 58 S15 30.19S TC 21  
BRIDGEPORT SUNNY 72 53 51 S10G22 30.18S TC 22  
DENTON SUNNY 72 58 61 S16 30.19S TC 22  
WAXAHACHIE MOSUNNY 71 63 76 S14 30.24S TC 21  
GRANBURY SUNNY 72 55 54 S17G25 30.19S TC 22  

 
 
TXZ085-086-115-141-131700-  
WESTERN NORTH TEXAS  
 
CITY SKY/WX TMP DP RH WIND PRES REMARKS
 
WICHITA FALLS SUNNY 74 51 44 S18G29 30.10S TC 23  
VERNON NOT AVBL  
BRECKENRIDGE SUNNY 74 47 38 MISG 30.12S HAZE TC 23  
COMANCHE MOSUNNY 74 52 46 S21G28 30.18R TC 23  

 
 
TXZ145-158-159-173-191-192-194-205-207-220-223-131700-  
CENTRAL AND SOUTH CENTRAL TEXAS  
 
CITY SKY/WX TMP DP RH WIND PRES REMARKS
 
AUSTIN/BERGSTM PTSUNNY 73 62 68 S14G23 30.22F TC 23  
WACO MOSUNNY 71 62 73 S16 30.22S TC 22  
HILLSBORO SUNNY 69 62 79 S17 30.21F TC 21  
TEMPLE MOSUNNY 72 63 73 S21 30.23S TC 22  
KILLEEN-GRAY SUNNY 74 59 58 S18 30.20F TC 24  
FORT HOOD SUNNY 74 60 62 S15G22 30.22R TC 23  
GEORGETOWN MOSUNNY 72 59 63 S15G25 30.24S TC 22  
LAGO VISTA MOSUNNY 71 59 66 S13G21 30.23F TC 22  
SAN MARCOS MOSUNNY 74 63 68 S14 30.24F TC 23  
NEW BRAUNFELS MOSUNNY 72 61 68 S14G22 30.22S TC 22  
RANDOLPH AFB MOSUNNY 75 62 62 SE15 30.20R TC 24  
SAN ANTONIO MOSUNNY 73 60 63 SE16G24 30.23R TC 23  
STINSON MOSUNNY 73 61 65 S12 30.21R TC 23  
PLEASANTON NOT AVBL  
LA GRANGE PTSUNNY 72 68 88 S12 30.25R TC 22  
GIDDINGS PTSUNNY 72 63 73 S3 30.26S TC 22  

 
 
TXZ095-096-136-137-148-152-131700-  
EAST TEXAS  
 
CITY SKY/WX TMP DP RH WIND PRES REMARKS
 
PARIS SUNNY 74 57 55 S13 30.23R TC 23  
CLARKSVILLE NOT AVBL  
TYLER SUNNY 72 51 47 SW12 30.25R TC 22  
LONGVIEW MOSUNNY 74 46 36 S12 30.26R TC 23  
PALESTINE SUNNY 70 55 60 S10 30.24S TC 21  
NACOGDOCHES MOSUNNY 73 45 36 S13 30.29R TC 23  

 
 
TXZ171-183-184-186-188-203-204-131700-  
TEXAS HILL COUNTRY AND EDWARDS PLATEAU  
 
CITY SKY/WX TMP DP RH WIND PRES REMARKS
 
LLANO MOSUNNY 75 52 43 S12G18 30.19S TC 24  
HORSESHOE BAY SUNNY 74 55 51 S14G22 30.21F TC 23  
KERRVILLE MOSUNNY 74 51 45 S18G25 30.22S TC 23  
FREDERICKSBRG MOSUNNY 74 47 39 S20 30.21F TC 23  
ROCKSPRINGS PTSUNNY 68 48 49 S21G30 30.22F TC 20  
HONDO PTSUNNY 72 58 61 S16 30.22R TC 22  
UVALDE PTSUNNY 68 57 67 SE13 30.22F TC 20  
DEL RIO MOSUNNY 73 54 51 SE20 30.15R TC 23  

 
 
TXZ163-177-195>197-199-213-226-237-131700-  
SOUTHEAST TEXAS  
 
CITY SKY/WX TMP DP RH WIND PRES REMARKS
 
COLLEGE STN MOSUNNY 74 62 66 S10 30.26R TC 23  
CALDWELL MOSUNNY 73 63 72 S9 30.26S TC 23  
CROCKETT SUNNY 70 61 73 CALM 30.27R TC 21  
BRENHAM MOSUNNY 74 63 68 S9 30.26S TC 23  
HUNTSVILLE MOSUNNY 73 57 57 S9 30.27R TC 23  
CONROE SUNNY 73 55 53 S10 30.28R TC 23  
HOUSTON BUSH MOSUNNY 76 53 44 SE9 30.27S TC 24  
HOUSTON HOBBY MOSUNNY 76 57 51 SE8 30.27R TC 24  
PERLAND SUNNY 75 58 55 S7 30.29R TC 24  
WHARTON SUNNY N/A N/A N/A S9 30.27S  

 
 
TXZ215-216-236-237-438-131700-  
THE UPPER TEXAS COAST  
 
CITY SKY/WX TMP DP RH WIND PRES REMARKS
 
ORANGE SUNNY 78 45 30 S7 30.31S TC 26  
PORT ARTHUR SUNNY 78 50 37 S15 30.28R TC 26  
GALVESTON SUNNY 74 64 71 SE12 30.30R TC 23  
ANGLETON SUNNY 76 62 62 S12 30.28R TC 24  
BAY CITY MOSUNNY 75 62 64 S13 30.27S TC 24  

 
 
TXZ229-232-234-239-242-243-245-247-249-250-  
253-255-257-343-347-443-131700-  
TEXAS COASTAL BEND, RIO GRANDE PLAINS DEEP SOUTH TEXAS  
 
CITY SKY/WX TMP DP RH WIND PRES REMARKS
 
VICTORIA MOSUNNY 75 64 68 SE14 30.25R TC 24  
BEEVILLE MOSUNNY 78 56 48 SE18G24 30.21S TC 25  
ROCKPORT SUNNY 78 65 63 SE16G22 30.22R TC 26  
PORT ARANSAS SUNNY 76 66 72 SE12 30.24S TC 24  
PORT LAVACA PTSUNNY 77 67 71 SE14 30.25S TC 25  
CORPUS CHRISTI PTSUNNY 79 64 60 SE18 30.21R TC 26  
KINGSVILLE NAS MOSUNNY 81 64 56 SE16G28 30.20R TC 27  
COTULLA MOSUNNY 74 60 61 SE13G23 30.19S TC 23  
LAREDO MOSUNNY 78 57 48 S14G22 30.16R TC 26  
BROWNSVILLE MOSUNNY 80 63 55 SE21G26 30.18R TC 27  
PORT ISABEL LGT RAIN 79 63 57 SE22G30 30.19R TC 26  
HEBBRONVILLE MOSUNNY 75 60 59 S15G22 30.19R TC 24  
MCALLEN MOSUNNY 79 63 57 SE20G30 30.16S TC 26  
WESLACO NOT AVBL  
 
CLICK HERE TO GO TO PREVIOUS BULLETINS.

The Nexlab TX Page Main Text Page